Location: Bruderhein
(53.8035°N, 112.9265°W)
Time: 07:13:34
(UTC+00:00)

RS-15 - Pass Details

Date: 03 April 2023
Orbit: 1885 x 2159 km, 64.8° (Epoch: 29 May)

Event Time Altitude Azimuth Distance (km) Brightness Sun altitude
Rises 06:06:26 0° 311° (NW) 5,668 11.5 -28.1°
Reaches altitude 10° 06:09:55 10° 313° (NW) 4,643 10.8 -28.3°
Maximum altitude 06:22:09 85° 44° (NE) 2,077 8.0 -29.0°
Enters shadow 06:27:07 43° 129° (SE) 2,662 8.3 -29.3°
